Theta_e
280 277 273 273 274 275 276 276 276 278 277 277 276 276 275 276 278 279 278 282 281 276 276 274 275 275 277 277 278 279 280 281 280 281 281 281 282 282 282 282 282 283 284 285 285 285 285 286 286 286 285 285 285 286 286 286 286 286 286 286 286 287 287 288 287 287 286 285 285 286 285 285 286 288 289 288 289 289 290 290 290 291 291 290 290 291
280 277 275 276 276 276 276 276 276 277 277 277 277 276 275 275 277 279 279 280 282 276 276 277 275 276 276 277 278 278 279 280 280 280 281 281 281 282 282 282 282 283 283 284 284 285 284 285 285 285 285 287 284 285 285 285 285 286 286 285 286 286 287 287 287 286 286 286 285 284 285 285 286 286 286 286 288 288 289 289 289 290 290 290 290 291
277 274 276 277 277 276 276 276 276 276 277 276 276 275 275 276 276 278 278 279 281 278 276 277 275 276 277 278 279 278 278 279 280 280 281 281 281 282 282 282 282 282 283 283 284 284 284 284 284 284 285 284 284 284 284 284 285 285 286 285 285 286 286 286 288 287 286 286 286 285 285 285 285 286 287 287 288 288 288 288 288 289 289 289 289 289
274 275 277 278 275 277 276 276 276 277 277 275 275 275 275 276 275 276 279 278 280 276 276 276 274 276 278 277 277 279 277 279 278 280 279 280 281 281 282 282 282 282 282 282 282 283 284 284 284 284 284 284 284 284 284 284 284 285 287 285 285 285 285 285 288 290 287 288 286 286 286 286 285 285 287 285 286 286 287 287 287 287 288 288 288 288
274 277 278 277 275 276 275 276 276 275 275 275 276 274 274 274 276 276 277 277 277 278 278 277 277 275 277 275 276 278 278 278 279 278 279 280 280 280 280 281 282 282 282 282 282 283 283 283 284 284 285 284 284 284 284 284 284 285 284 285 285 285 285 285 288 286 287 286 285 285 285 285 284 285 284 284 284 285 286 286 286 286 287 287 287 288
276 279 278 275 275 275 276 275 275 275 274 274 276 275 276 276 275 275 275 277 274 274 277 276 270 270 275 275 274 276 276 278 277 278 279 278 278 279 280 280 281 282 281 282 282 283 283 283 283 284 284 283 283 284 284 283 284 284 285 285 284 285 285 285 285 286 287 285 284 283 283 282 282 281 282 282 282 283 283 284 285 286 286 287 287 287
278 279 277 275 275 275 275 274 275 276 273 271 275 275 277 276 275 275 275 277 273 272 277 276 271 263 273 276 276 276 275 275 276 275 276 276 277 278 279 280 280 280 281 282 281 282 282 283 282 283 283 283 283 285 284 284 284 284 285 284 284 284 286 286 285 285 287 284 284 283 282 283 281 281 282 283 283 283 284 285 284 285 286 286 286 286
278 278 277 276 275 275 274 274 275 275 272 273 274 276 276 276 275 275 276 277 275 276 278 273 272 267 270 275 277 276 274 274 274 276 275 277 277 277 278 278 279 280 280 281 281 282 282 282 282 282 283 283 284 283 283 283 283 283 284 284 284 284 286 284 284 285 285 284 284 282 282 284 282 282 282 283 283 284 285 284 284 284 285 285 286 286
278 277 277 276 275 274 274 275 277 277 274 276 275 276 275 276 275 275 276 276 275 275 274 273 275 271 268 273 276 274 274 273 274 275 276 277 277 277 278 278 279 280 280 280 281 281 281 282 282 283 283 283 283 283 283 283 282 283 283 284 284 283 283 283 283 286 283 286 284 282 282 281 283 283 283 283 283 283 284 283 283 283 284 284 285 285
279 279 279 278 274 274 276 276 275 276 275 275 277 277 276 276 276 276 275 275 273 270 266 271 273 265 268 271 274 275 273 273 274 275 275 276 278 277 278 279 279 280 280 280 281 281 281 282 282 282 282 282 282 282 284 283 282 282 282 283 283 282 282 283 283 283 283 283 284 282 282 281 281 282 282 282 282 282 283 282 282 283 283 284 284 284
278 281 283 278 277 278 277 277 276 276 278 277 277 276 274 273 274 272 271 271 266 262 267 272 273 271 266 272 275 273 274 275 274 274 274 275 276 277 278 278 280 280 280 280 280 281 281 282 282 281 281 281 282 282 281 282 281 282 282 281 281 282 282 283 283 282 282 282 282 282 282 281 281 281 281 281 281 282 282 281 282 282 283 283 283 284
277 277 278 278 281 279 278 277 276 277 276 277 274 274 274 273 271 270 262 264 264 259 264 272 271 272 262 268 275 277 275 274 277 276 275 277 278 277 277 278 279 279 280 280 280 280 281 281 281 281 280 281 281 281 281 281 282 282 282 281 281 282 282 282 283 282 282 282 281 281 281 281 281 281 281 280 280 281 281 281 281 282 282 282 283 283
277 277 277 277 283 279 276 276 275 276 277 276 273 273 269 262 260 261 259 263 260 259 268 270 270 266 269 273 273 278 276 275 274 277 278 277 278 277 277 278 278 279 279 279 279 279 280 280 280 279 280 280 281 281 281 281 281 281 281 280 280 281 281 281 281 281 281 281 281 281 281 281 282 282 281 281 281 281 281 281 281 281 281 282 282 282
271 275 275 277 278 279 277 273 274 272 275 275 272 268 259 260 253 256 251 252 258 265 269 270 269 268 271 273 274 277 276 275 275 276 278 277 276 277 277 278 277 278 277 278 278 278 278 279 280 279 279 279 280 280 281 281 282 280 281 280 280 281 281 281 281 281 281 281 281 281 281 281 281 281 282 281 281 281 282 282 281 281 281 281 281 282
264 267 273 275 274 277 276 276 276 275 274 273 274 273 269 258 261 259 252 262 262 263 266 266 265 262 268 272 276 275 275 275 275 276 277 276 275 276 276 276 276 276 277 277 278 279 279 280 279 279 280 279 279 280 280 280 280 279 280 280 280 279 280 280 280 281 281 281 281 281 281 281 281 281 282 281 282 282 281 282 281 281 282 282 282 282
271 269 274 277 277 276 276 277 277 275 271 273 273 272 265 264 266 264 253 258 255 257 262 261 267 269 273 276 279 275 275 275 277 276 278 278 277 276 275 276 276 277 277 278 278 279 279 279 279 279 279 279 279 279 279 279 279 279 279 279 280 279 280 280 281 280 280 280 281 281 280 280 282 283 282 282 282 282 282 281 282 282 282 282 282 283
268 268 275 275 278 277 276 277 278 278 267 273 272 264 270 274 266 258 260 259 259 255 261 259 268 272 273 274 276 275 274 275 276 275 275 275 274 274 275 276 276 277 277 277 278 278 279 279 279 279 279 279 279 279 279 279 279 279 279 279 279 279 279 279 280 280 280 280 280 280 280 280 280 280 280 280 280 281 282 282 282 282 282 282 283 283
267 269 274 274 277 277 277 276 278 276 276 273 265 272 275 273 268 268 263 255 250 256 261 262 265 268 268 267 275 275 273 274 274 274 274 274 273 274 275 276 276 277 277 277 277 278 279 279 279 279 279 279 279 278 278 279 279 279 279 279 279 279 279 279 279 279 280 279 279 279 280 280 280 280 280 280 280 281 281 281 282 282 282 282 283 283
273 264 270 274 274 276 277 278 276 278 277 276 274 277 274 261 264 260 259 258 257 256 257 262 264 265 269 271 272 272 273 274 274 274 273 274 274 274 275 275 276 276 277 277 278 278 278 278 279 279 279 279 279 279 278 279 279 279 278 279 279 279 279 279 279 279 280 279 279 280 280 279 280 280 280 281 281 281 281 281 281 281 282 282 282 282
269 265 267 274 275 274 275 272 266 271 276 271 276 275 274 266 261 261 261 258 259 256 256 262 258 266 270 271 273 274 274 275 274 274 273 274 274 275 275 276 276 277 277 277 278 278 279 279 279 279 279 279 279 279 279 278 278 278 279 279 279 279 279 278 278 279 278 279 279 279 279 279 280 280 280 280 281 280 281 281 281 281 281 282 282 282
269 269 262 270 271 273 269 270 271 273 269 272 270 264 268 266 270 267 263 262 262 252 253 253 260 263 270 272 274 275 276 276 275 275 274 275 275 275 276 276 276 277 277 278 278 279 279 279 279 279 279 279 278 278 279 278 278 279 279 278 279 278 278 278 278 278 278 279 279 279 278 279 279 279 280 280 280 280 280 281 281 281 281 282 281 281
262 263 264 264 269 266 270 276 274 274 273 271 272 271 270 266 265 262 264 264 258 260 258 251 262 268 273 275 274 275 276 276 275 274 275 274 275 275 276 276 276 277 278 278 278 278 279 279 279 279 279 278 277 277 277 278 278 278 278 278 278 278 278 278 278 278 278 278 279 278 278 278 279 279 280 280 280 280 280 280 281 281 281 280 280 280
273 261 263 265 267 271 273 274 275 274 272 272 274 272 271 268 263 258 257 258 260 264 260 256 256 262 273 274 274 274 273 274 274 274 275 275 275 276 276 277 277 277 277 278 278 279 279 278 278 279 279 278 278 278 278 277 278 278 278 278 278 278 278 278 278 278 278 278 278 278 278 278 278 279 279 279 279 279 280 280 280 281 280 280 280 280
279 261 263 266 266 269 272 269 268 271 273 269 265 264 269 269 268 266 260 260 260 259 259 255 256 264 273 275 274 274 274 274 274 274 275 275 276 277 276 277 278 279 279 279 278 278 278 278 278 278 277 278 278 278 278 278 278 277 277 277 277 277 278 278 278 278 278 278 277 278 277 278 278 278 278 278 279 279 279 280 280 280 280 279 279 279
266 264 266 261 259 261 261 264 268 268 266 265 268 270 271 268 264 259 258 257 261 261 266 258 261 261 272 276 274 274 274 274 274 275 275 276 277 278 278 278 279 279 279 278 278 279 278 278 278 279 279 279 279 278 278 278 278 277 277 277 277 277 278 277 277 277 277 277 277 277 277 277 278 278 278 278 279 279 279 279 279 280 279 279 279 279
267 264 263 261 259 261 261 260 261 257 263 270 270 271 270 269 264 264 263 257 259 262 265 258 263 271 273 274 275 275 275 275 277 278 278 278 277 278 278 278 278 278 278 278 278 278 278 279 279 279 279 279 279 278 278 278 278 277 277 277 277 277 277 277 277 277 276 276 276 276 276 277 277 277 278 278 278 279 279 279 279 279 279 279 278 279
263 268 266 264 264 266 268 266 266 272 267 265 268 268 269 270 270 267 262 261 264 265 261 266 268 270 271 274 274 276 276 275 276 277 277 278 278 279 278 278 278 278 278 278 278 279 278 278 279 279 279 279 278 278 278 278 277 277 276 276 276 276 276 276 277 276 276 276 276 276 276 277 277 278 278 278 278 279 279 278 278 278 278 278 278 278
262 262 265 266 267 269 269 266 267 271 268 269 268 269 271 270 270 268 266 266 268 263 263 268 271 268 270 273 274 275 275 276 276 277 277 278 278 278 278 278 281 278 278 278 278 278 278 278 279 279 279 278 279 279 278 278 277 276 276 276 276 276 276 277 277 276 276 276 276 276 277 277 277 278 278 278 278 278 278 278 278 277 277 278 277 278
261 263 263 265 263 267 269 269 270 267 269 269 269 269 269 270 270 267 268 270 270 265 264 269 269 268 271 273 275 275 276 276 276 277 277 278 278 278 277 277 277 277 278 278 278 278 278 278 279 279 279 279 279 279 278 278 276 276 276 276 276 276 276 276 276 276 276 276 276 276 277 277 278 278 278 278 278 278 278 277 277 277 277 277 277 278
267 261 263 266 266 267 269 270 270 269 269 269 268 269 270 270 270 270 269 270 269 268 270 270 270 270 272 273 275 276 277 277 277 278 277 277 277 277 277 277 277 277 277 277 278 278 278 279 279 279 279 279 279 279 279 278 276 276 276 276 276 276 276 276 276 276 276 276 276 277 277 277 278 278 278 277 277 277 277 277 277 276 276 276 277 276
268 261 273 266 265 267 267 268 267 268 265 266 269 270 270 270 270 270 270 270 270 269 270 269 269 268 273 276 275 277 277 277 276 275 276 277 277 277 277 277 277 277 278 278 279 279 280 280 280 280 280 280 279 279 279 277 276 276 276 276 276 276 277 276 276 276 276 276 277 277 277 277 277 277 277 277 277 277 277 276 276 276 276 276 276 276
270 263 263 265 264 264 265 265 266 266 268 268 268 269 269 268 264 267 268 270 268 267 269 268 267 268 273 275 275 275 275 275 275 276 276 277 278 277 277 277 278 278 279 279 279 279 280 280 280 280 280 280 280 280 277 275 276 276 276 277 277 277 277 277 277 277 277 277 277 277 277 277 277 276 276 277 276 276 276 276 276 275 275 275 275 275
268 261 262 262 265 266 267 265 268 269 268 266 262 264 268 268 269 269 270 271 271 270 267 265 268 274 275 277 275 275 276 276 276 276 277 278 278 278 278 278 278 279 279 279 279 280 280 280 280 281 281 281 282 280 276 276 276 276 277 277 278 278 277 277 277 277 277 277 277 277 277 277 276 276 276 276 276 276 276 275 275 275 275 275 275 275
266 265 264 265 264 266 267 268 270 266 263 263 270 271 270 268 268 267 268 271 272 272 271 273 274 275 275 275 274 274 275 276 276 277 279 278 278 278 278 279 279 279 279 279 280 280 281 281 282 282 282 282 279 276 276 277 277 277 278 278 278 277 277 277 277 277 277 277 277 277 276 276 276 275 276 276 276 275 275 275 275 275 275 275 275 274
268 267 262 264 267 266 268 270 265 258 262 270 274 274 273 274 272 270 272 273 274 274 273 273 273 274 275 276 276 276 276 277 277 277 278 279 279 278 278 279 279 279 279 280 280 281 281 281 281 281 281 281 278 276 277 277 278 278 278 278 277 278 277 277 277 277 277 276 276 276 276 276 275 275 275 275 275 275 274 275 275 275 275 274 274 274
265 265 264 270 270 270 267 267 261 262 268 274 276 275 275 274 273 271 270 272 274 274 274 273 274 275 275 276 276 277 277 277 277 277 278 279 280 279 278 279 279 280 280 281 280 281 281 281 281 281 280 279 277 276 277 277 278 277 277 278 277 277 277 277 276 276 276 276 276 276 276 275 275 275 275 275 275 274 274 274 274 274 274 274 274 274
272 269 267 266 271 264 265 264 266 271 270 272 269 271 272 271 270 269 266 272 275 275 274 274 275 275 275 276 276 276 277 277 275 277 279 279 279 280 279 279 280 280 280 281 281 281 281 281 281 280 278 276 276 276 276 277 277 277 277 277 277 277 277 276 276 276 276 276 275 275 275 275 275 275 274 274 274 274 274 274 274 274 274 273 273 273
275 271 272 268 268 270 265 264 265 265 262 267 271 273 274 273 274 273 270 270 277 276 276 275 274 275 275 275 276 276 276 275 273 275 277 278 278 278 279 280 280 281 281 281 281 282 282 282 281 279 276 275 275 276 276 277 277 277 276 276 277 276 276 276 275 275 275 275 275 275 275 275 275 274 274 274 273 273 274 274 274 273 274 273 272 272
274 275 273 270 268 268 267 263 263 260 265 272 273 273 273 273 273 274 270 267 275 276 276 275 274 275 275 275 276 276 274 271 272 276 280 280 281 281 281 281 281 281 281 281 281 281 281 281 279 277 275 275 275 276 277 277 277 277 276 276 276 276 275 275 275 275 275 275 275 275 275 275 274 274 274 273 273 273 273 273 273 273 273 273 272 272
271 272 271 269 268 269 267 264 263 268 266 271 272 272 273 273 275 273 263 263 272 275 275 274 275 275 276 276 276 275 274 271 274 277 281 281 281 281 280 280 280 281 281 281 281 281 281 279 276 275 274 275 275 276 277 277 277 276 276 276 276 275 275 275 275 275 275 275 275 275 274 274 274 274 273 273 273 273 273 273 273 272 272 272 272 272
267 268 270 266 268 268 269 267 269 269 275 277 277 278 273 274 271 261 261 270 274 274 275 275 275 276 276 276 277 275 277 278 279 281 281 281 281 281 281 282 281 281 281 281 281 282 279 277 275 274 274 275 276 277 277 277 276 275 275 275 275 274 275 275 275 275 275 274 274 274 274 274 274 273 273 273 273 272 272 272 272 272 272 272 272 272
264 263 265 269 267 266 267 266 266 269 275 278 278 277 275 271 260 263 275 275 276 277 277 277 277 279 279 278 278 278 279 280 281 281 281 281 280 281 281 281 281 281 282 282 281 278 276 275 274 274 274 276 277 277 277 276 275 275 275 274 274 274 275 275 275 274 274 273 273 273 273 273 273 273 273 272 272 271 271 271 271 271 271 271 271 271
267 263 262 263 267 269 268 265 264 262 271 278 274 273 274 268 271 278 279 277 278 279 279 279 279 279 279 278 280 279 280 280 280 280 280 280 280 280 280 280 280 280 280 280 278 277 275 274 274 274 274 276 276 276 276 276 275 274 274 273 274 275 275 275 274 273 273 273 272 272 272 272 272 271 271 271 271 270 270 270 270 271 271 271 271 270
273 266 262 262 268 263 265 263 265 273 276 274 276 272 274 277 281 281 279 278 280 280 279 279 279 280 280 279 279 279 280 279 280 280 280 280 280 280 280 280 280 280 280 278 276 274 273 273 274 274 275 276 276 276 276 275 274 274 273 273 275 275 274 274 273 273 272 271 271 271 271 271 270 270 270 270 269 269 269 269 270 270 270 270 270 270
275 272 272 270 271 269 268 271 276 277 277 277 277 280 281 281 280 280 279 278 278 279 280 279 279 280 280 280 280 279 279 279 279 280 279 279 280 280 280 280 280 279 278 276 275 274 273 273 274 275 275 275 275 275 275 275 273 273 272 273 274 274 273 272 272 271 270 270 270 269 269 269 269 269 269 268 269 268 269 269 270 269 270 270 270 269
277 278 276 274 274 277 279 277 279 279 280 279 279 279 279 280 281 280 279 278 279 280 280 280 280 280 280 280 279 279 279 279 279 279 279 280 280 280 280 280 279 278 276 274 273 273 274 274 275 274 274 274 274 274 274 274 274 272 272 273 273 273 272 271 270 269 269 269 269 268 268 268 268 268 268 268 269 269 269 269 269 269 269 270 269 269
277 277 276 273 275 273 271 278 278 279 280 280 280 281 281 280 280 281 280 280 280 281 281 281 281 281 280 280 279 278 279 279 279 279 279 279 279 279 279 278 277 275 273 272 274 274 274 274 274 273 273 272 273 274 274 273 273 273 273 272 272 271 270 269 269 268 268 267 267 267 267 267 267 267 268 268 269 269 269 270 270 269 269 269 268 268
274 279 275 276 275 273 274 278 279 280 279 279 279 279 279 281 281 281 282 281 281 281 281 281 281 280 281 279 280 279 279 280 279 279 279 279 279 279 278 277 274 273 273 274 274 274 273 273 273 272 272 272 273 273 273 272 272 272 271 271 270 270 269 268 267 267 266 266 266 266 267 267 267 267 267 268 268 268 269 269 269 268 268 268 268 267
276 278 272 274 272 275 277 278 279 279 279 279 281 281 281 281 281 281 281 280 280 280 280 281 281 281 280 280 280 280 279 279 279 279 278 278 278 277 276 273 273 273 273 273 273 273 273 273 272 271 271 271 272 272 271 271 271 271 270 270 269 268 267 267 267 266 265 266 266 266 267 267 267 267 267 267 268 268 269 268 268 268 268 270 270 269
277 274 278 276 273 273 273 276 278 273 274 277 278 279 280 281 280 280 280 280 281 281 281 281 281 282 281 281 280 280 279 279 279 279 278 277 276 274 273 272 272 272 272 273 273 272 272 272 271 271 270 271 271 271 270 269 270 270 269 269 268 268 266 266 265 265 265 265 266 266 266 266 266 267 267 267 267 267 268 270 271 271 269 269 270 271
276 278 277 274 273 273 278 279 279 279 279 280 281 282 281 282 281 280 280 281 281 282 281 281 280 280 280 280 280 279 278 278 278 278 276 275 273 272 272 272 271 272 272 272 271 271 271 271 271 270 269 270 270 269 269 268 268 268 268 268 268 267 266 265 265 265 265 265 265 265 265 266 266 266 266 267 267 267 266 267 269 270 271 271 269 269
Wind_Speed
4 15 8 4 6 7 6 2 1 1 3 4 4 4 4 3 1 1 1 3 1 3 4 3 3 2 1 0 1 2 2 2 1 1 1 1 1 2 2 3 3 3 3 3 4 3 4 4 4 4 4 4 4 5 7 8 10 12 12 12 14 12 13 13 13 13 13 14 14 12 13 12 10 10 9 9 9 10 10 12 12 12 11 14 15 15
4 15 8 5 6 5 7 5 1 4 2 6 7 6 6 2 2 0 1 4 3 3 0 1 3 2 1 0 1 2 2 0 0 0 1 1 0 1 2 2 2 2 3 5 5 6 4 4 5 4 4 4 6 7 7 8 9 9 10 11 10 10 11 12 12 10 10 10 8 8 10 10 10 11 12 12 10 11 9 11 12 12 13 13 14 14
13 7 6 5 4 3 3 2 2 3 5 3 6 4 4 3 3 6 2 4 5 5 1 0 2 2 2 1 1 1 2 2 2 2 1 0 1 1 1 1 2 3 3 4 4 4 4 5 5 4 4 5 4 5 6 5 6 7 9 9 8 8 8 9 10 10 10 9 9 9 8 10 9 6 7 8 9 9 11 9 11 12 13 13 12 14
8 5 6 3 2 1 3 3 1 4 6 5 4 6 2 2 1 1 2 5 6 2 4 2 3 2 1 2 3 2 2 2 2 2 2 2 1 0 0 0 0 1 2 3 4 4 5 4 4 4 5 5 5 5 5 6 6 6 8 8 8 7 6 6 7 7 7 8 7 6 7 6 7 8 7 4 3 8 13 16 13 12 13 13 13 14
6 3 2 1 2 3 1 5 11 7 4 3 4 4 1 1 1 1 1 5 4 1 3 1 2 3 5 3 2 3 1 1 2 2 1 1 2 2 1 0 1 1 1 3 4 4 5 5 5 4 4 5 5 5 5 5 5 5 6 7 7 6 5 5 6 6 5 6 6 6 5 3 4 3 5 9 12 11 9 9 13 15 13 12 12 13
2 1 0 2 5 5 1 8 7 2 1 3 1 2 0 1 3 3 2 1 2 2 1 1 2 5 3 6 7 4 1 2 1 0 2 3 3 3 2 1 2 1 2 2 3 4 4 4 6 6 6 5 5 5 5 4 4 4 5 5 5 5 5 5 5 6 5 7 9 11 14 17 17 16 15 16 16 16 15 15 12 11 12 13 13 12
2 1 3 1 3 4 7 6 0 2 1 2 0 1 1 3 2 1 3 1 1 1 0 1 2 6 1 7 7 6 4 5 3 2 3 3 3 2 2 2 2 2 3 4 3 4 4 5 5 5 5 5 4 5 4 4 4 4 4 5 5 5 4 4 5 5 5 6 8 9 10 10 11 12 10 9 9 10 11 10 13 12 12 13 13 13
2 5 7 3 3 6 5 6 0 2 2 1 1 2 4 0 2 3 2 4 1 1 0 2 3 3 7 7 5 6 5 5 4 5 3 4 4 3 3 2 2 3 3 4 5 5 4 3 2 4 5 4 4 4 4 4 4 4 4 4 5 4 4 4 4 4 5 7 7 8 8 9 10 10 11 12 11 10 10 11 12 12 12 13 12 13
3 5 5 7 6 6 4 1 2 1 1 2 2 2 5 3 3 1 1 1 1 1 6 1 0 0 5 5 2 4 5 5 8 6 5 4 4 4 4 4 3 4 4 4 4 5 4 4 5 4 6 6 5 4 4 4 4 3 4 4 4 4 3 3 4 4 5 6 8 9 9 10 8 9 9 9 9 10 11 13 12 11 12 11 13 12
2 1 1 1 3 5 4 3 3 5 3 1 2 2 2 3 3 1 1 2 2 1 5 4 2 2 8 4 5 1 2 8 7 8 6 6 5 4 4 4 4 4 5 4 4 4 5 4 6 5 4 5 4 4 4 4 3 4 3 3 4 4 4 4 5 5 7 8 8 9 9 10 11 9 9 8 10 10 10 12 13 11 11 11 12 12
1 3 3 4 2 2 4 3 2 4 1 2 3 2 4 5 3 2 5 2 3 1 7 2 0 1 6 5 9 10 9 6 5 3 2 3 4 4 4 4 4 4 5 5 5 5 4 5 4 4 5 5 5 4 3 3 3 3 3 4 6 6 6 6 6 5 6 5 5 6 8 9 11 12 10 11 12 11 11 11 11 11 11 11 11 11
2 2 1 1 0 3 0 2 2 1 2 1 1 2 2 1 6 1 3 3 1 6 4 0 3 0 3 5 5 6 2 5 11 8 7 5 4 3 3 4 4 4 5 4 4 5 5 7 7 5 5 4 5 4 5 5 5 7 7 6 6 6 5 5 5 5 4 4 4 5 7 9 10 11 11 12 13 14 13 13 12 11 10 11 10 11
0 2 2 5 2 7 4 1 1 1 3 5 3 6 2 4 4 3 2 2 5 6 1 1 3 3 11 9 3 6 5 3 4 8 9 6 2 2 3 4 4 4 4 4 4 4 4 4 5 5 4 4 6 6 6 7 5 5 4 4 3 5 5 5 5 5 4 5 5 7 8 9 10 11 12 12 13 13 12 11 12 13 12 11 12 10
2 2 5 4 3 3 4 5 7 2 8 9 5 2 3 1 2 2 4 2 5 3 2 1 1 5 4 6 3 7 6 3 4 5 6 5 3 1 2 4 5 6 4 5 4 4 5 5 5 4 4 4 4 5 6 6 5 5 4 4 4 6 5 5 5 5 6 7 7 7 9 9 9 10 11 11 12 13 11 11 12 12 11 13 13 14
3 2 3 4 2 4 3 3 1 1 3 2 2 1 1 4 1 3 2 3 3 3 5 4 3 6 1 2 3 1 1 0 3 5 4 3 2 2 3 4 5 5 5 4 4 5 5 6 4 4 5 5 5 5 6 5 5 4 5 4 5 6 6 6 6 6 7 8 8 7 8 9 9 10 11 10 11 12 13 12 12 12 13 12 12 11
1 5 3 2 2 2 2 0 1 2 1 1 1 2 3 1 1 1 2 1 2 4 7 1 6 1 1 1 1 1 1 3 3 3 1 2 2 2 3 4 5 6 6 5 4 6 6 5 5 4 5 5 5 6 5 6 6 4 5 5 5 6 7 6 6 6 6 7 7 8 9 10 10 10 10 10 10 11 11 13 12 13 13 12 12 12
3 0 2 6 2 3 3 2 1 0 1 2 2 1 1 1 4 3 1 1 1 3 8 1 9 5 5 2 1 2 3 2 0 2 1 2 3 3 4 5 5 5 5 6 5 5 6 6 5 5 5 6 6 6 6 6 6 5 6 5 7 7 6 6 6 6 6 7 8 9 10 10 11 11 12 12 13 14 13 11 12 12 13 12 12 12
1 8 3 2 0 0 1 1 1 3 1 2 2 2 1 1 3 2 2 3 4 1 7 2 5 6 4 6 1 0 2 4 4 4 4 3 3 4 6 5 5 6 6 6 7 7 7 7 7 8 7 7 7 7 7 7 6 5 6 6 7 7 7 7 6 7 7 8 9 9 10 11 11 12 12 13 14 14 12 12 11 11 12 12 11 11
1 5 1 1 2 6 4 1 2 1 2 2 2 2 1 1 1 3 2 3 3 4 6 6 4 6 5 8 2 6 7 9 8 5 4 4 4 5 6 7 6 6 6 7 7 7 7 7 7 7 8 8 7 7 8 8 8 7 6 7 7 8 8 7 7 6 7 7 7 8 10 11 12 11 12 12 14 14 14 15 14 13 13 13 11 12
2 0 6 1 1 4 3 4 2 3 3 2 1 1 0 3 2 0 1 2 5 6 5 7 5 7 6 4 8 9 11 10 7 6 5 6 5 5 5 5 6 6 6 7 7 8 8 8 8 8 8 9 9 8 8 8 7 8 8 7 7 7 6 7 8 7 8 8 8 10 11 11 11 12 12 13 13 14 15 15 14 15 14 13 12 11
1 0 2 3 3 1 1 3 0 1 3 5 3 2 1 1 1 2 0 2 3 3 3 2 7 6 6 5 6 10 10 11 10 8 5 5 5 5 6 7 6 7 7 7 8 9 9 9 8 9 8 8 8 8 8 9 9 9 7 7 8 8 8 8 8 7 8 8 9 10 12 13 12 13 12 13 14 14 14 14 14 14 13 13 12 13
1 1 4 4 7 1 2 1 0 2 1 1 1 0 2 0 0 1 7 2 1 1 4 2 12 6 6 2 2 5 6 5 5 4 4 4 5 6 7 6 6 7 8 8 9 9 10 9 9 9 9 8 8 9 10 10 8 8 8 9 8 7 7 8 8 8 9 8 9 11 12 13 12 12 12 13 13 14 14 14 14 13 13 13 13 12
2 2 1 6 5 5 3 2 2 2 2 1 1 0 2 1 4 3 2 3 1 2 3 2 2 10 5 2 3 3 2 3 4 2 4 5 7 7 7 7 8 8 9 10 10 9 9 9 9 9 10 11 11 12 10 10 10 10 9 9 8 8 9 8 9 9 8 9 10 12 12 12 12 12 13 13 13 13 14 14 14 13 13 13 12 11
4 1 2 5 5 4 3 0 0 3 4 2 1 1 0 0 1 4 4 2 2 1 2 3 5 9 6 1 2 1 1 2 3 1 5 7 8 9 7 9 12 11 10 9 8 8 10 9 9 9 10 11 11 10 11 11 10 9 8 9 8 9 10 9 9 9 9 9 11 12 12 13 13 13 13 13 12 14 14 14 14 13 13 13 13 13
2 2 3 4 5 2 3 2 2 2 3 1 1 1 1 3 4 1 4 1 2 8 9 5 14 1 3 1 1 2 3 5 6 6 4 9 10 9 10 11 12 11 11 11 11 11 10 10 11 11 12 12 12 11 11 11 11 10 9 8 8 9 9 9 9 9 9 10 12 12 12 13 12 12 13 14 13 14 14 14 13 12 13 14 14 14
1 1 1 1 3 7 8 7 7 4 2 2 0 0 0 3 5 1 5 1 4 3 9 6 11 3 2 2 6 7 6 8 9 12 12 10 12 13 11 11 12 11 11 12 12 12 13 12 11 11 12 12 12 12 12 12 11 10 9 9 8 9 9 9 9 9 9 10 11 12 13 13 12 13 14 14 13 14 14 14 13 13 13 13 15 14
1 1 1 4 6 7 7 4 1 1 3 3 2 1 3 3 5 2 4 2 13 3 6 12 10 18 20 20 18 18 13 13 13 12 14 16 16 15 11 12 11 11 12 13 13 12 11 11 14 15 14 14 13 13 12 12 12 10 8 9 9 9 9 10 10 9 9 10 11 12 13 13 13 13 13 13 13 13 13 13 13 13 14 13 14 13
2 1 5 6 8 8 4 6 4 2 7 8 7 8 6 6 6 7 8 13 6 3 19 7 18 17 24 14 13 14 13 11 13 14 16 16 16 14 13 13 14 14 14 13 12 13 14 15 14 15 15 15 14 13 12 12 11 10 9 10 9 9 9 9 9 10 10 11 12 13 14 13 13 13 14 13 13 13 13 13 13 13 13 13 13 13
2 1 2 2 7 7 8 9 7 4 6 7 6 8 11 11 9 13 15 17 10 10 21 7 5 13 21 17 17 18 16 15 15 16 17 17 16 13 13 14 15 15 14 14 14 13 14 14 14 15 15 15 14 15 15 12 10 8 8 9 9 8 9 10 9 10 11 12 13 14 13 13 12 12 13 14 14 14 14 14 13 13 13 12 12 11
2 3 3 1 7 5 6 9 8 9 7 6 7 12 15 15 15 14 16 15 15 19 17 18 19 23 23 22 18 18 17 15 15 13 12 14 16 14 13 14 14 14 14 14 13 13 12 13 14 15 15 16 16 16 16 13 10 9 9 9 8 8 9 9 10 11 12 13 14 14 13 14 13 14 14 14 14 14 14 14 13 13 13 12 13 12
3 4 5 0 3 8 3 4 5 7 5 10 10 16 19 15 14 15 14 17 16 16 19 22 24 24 20 15 14 13 13 10 9 11 15 16 14 13 12 13 13 14 14 14 13 14 13 14 15 15 16 17 17 17 15 12 9 9 9 9 9 10 10 9 11 12 13 15 15 15 14 14 14 14 15 15 14 14 14 15 13 12 12 13 12 13
0 4 2 1 3 5 1 2 5 8 11 14 18 16 14 11 10 9 10 12 8 13 12 12 14 15 15 7 7 6 7 8 12 14 15 14 12 11 13 14 15 16 16 16 15 14 15 16 16 16 17 17 16 15 11 8 9 8 9 9 10 10 9 10 12 14 15 16 16 15 15 14 14 15 15 15 15 15 14 13 13 13 13 12 13 12
4 1 0 1 3 7 1 1 10 16 16 8 2 3 5 3 5 2 8 11 11 7 6 10 15 12 12 9 12 14 12 13 12 12 14 17 14 12 14 16 17 17 17 16 15 16 16 16 16 16 17 16 16 13 8 8 8 9 9 10 11 10 10 12 13 15 16 16 16 15 15 15 15 15 15 15 15 14 12 14 13 14 14 14 13 12
1 3 1 2 2 3 3 4 5 7 8 6 3 4 6 4 8 8 10 14 11 11 11 10 13 13 14 15 15 16 14 13 12 13 13 13 14 16 17 16 15 15 14 14 15 15 15 16 16 17 17 17 13 8 8 7 8 9 9 10 10 11 12 13 15 15 17 17 16 15 15 15 15 16 15 14 13 11 13 12 14 15 13 12 11 12
3 1 3 2 2 4 2 5 4 2 9 3 3 7 9 12 7 11 14 16 17 12 14 15 17 17 17 15 14 15 15 13 10 11 15 15 11 13 16 17 16 15 15 15 16 17 18 18 19 19 19 17 12 7 6 7 7 8 10 10 11 12 14 15 16 17 17 17 15 14 14 15 14 14 13 14 13 13 12 14 14 15 12 11 10 11
4 3 2 2 1 3 1 2 3 8 6 16 17 10 3 1 3 3 10 17 17 14 14 14 15 15 14 14 14 13 13 14 7 6 12 15 12 12 13 14 16 16 17 17 18 19 19 19 19 19 18 13 9 7 6 8 8 9 11 11 13 14 14 15 17 18 17 16 14 14 14 13 14 14 14 14 14 14 14 15 15 13 13 11 11 11
7 1 3 3 3 4 3 5 9 9 13 15 5 1 0 0 1 0 6 16 5 5 8 11 13 13 13 12 12 13 12 11 9 9 8 12 11 10 11 13 14 16 16 18 18 18 17 17 17 17 12 10 8 6 7 8 9 10 12 13 14 14 15 17 17 17 16 15 14 13 13 13 14 15 15 14 14 15 14 14 14 14 11 11 12 13
6 9 3 4 4 7 6 7 4 3 3 9 4 1 2 1 5 4 1 18 9 4 10 10 11 12 12 11 9 9 11 16 17 8 3 7 8 9 10 11 13 14 15 16 17 17 18 17 15 12 10 9 7 6 7 7 10 12 14 15 15 16 17 17 18 16 15 14 14 13 13 13 14 15 15 14 14 15 14 12 12 11 11 11 13 14
4 6 4 5 3 2 2 3 4 4 8 8 11 4 4 3 5 1 5 16 8 4 5 8 9 9 9 10 12 9 11 15 19 14 7 8 11 12 15 16 16 15 15 15 15 17 18 17 14 11 7 6 7 7 7 10 13 15 16 16 17 17 17 17 16 14 13 13 12 13 13 13 13 14 15 13 13 13 13 14 12 12 11 11 12 14
5 5 4 5 7 7 4 4 8 5 7 7 3 2 5 3 0 6 9 8 1 5 4 4 6 7 10 9 9 10 9 13 19 20 18 16 14 13 12 15 17 18 17 16 15 14 14 13 11 8 6 6 7 8 10 12 14 16 17 17 16 17 17 15 13 14 13 12 12 13 13 13 13 13 13 14 14 12 13 11 12 13 12 12 12 15
1 5 6 12 8 8 10 9 5 8 8 16 18 11 7 2 5 1 9 12 2 4 4 3 6 7 9 11 8 12 11 12 16 20 21 20 19 19 16 13 14 15 16 17 16 14 12 11 8 7 6 6 7 9 11 13 15 17 17 17 16 17 16 14 13 14 12 12 12 14 15 13 13 14 14 13 13 12 12 12 12 13 14 15 15 16
2 1 3 1 6 9 7 7 10 8 12 15 14 2 6 2 1 9 10 2 4 9 7 6 12 14 12 13 12 12 15 15 16 16 18 19 19 19 18 17 17 16 15 14 14 11 10 8 6 6 6 7 10 11 13 14 17 17 17 16 17 18 15 14 13 12 12 13 14 14 14 15 14 13 13 13 12 12 13 13 12 12 14 14 16 18
7 4 4 5 3 1 4 5 5 8 5 5 4 5 3 4 8 9 9 4 4 12 15 14 11 14 14 16 15 15 16 17 18 18 18 18 18 19 19 18 18 17 17 16 13 10 9 7 7 7 8 9 10 13 14 16 18 17 16 17 19 17 15 14 13 12 13 13 15 15 15 15 15 12 12 12 13 12 14 13 12 13 14 17 17 18
4 2 2 4 6 4 5 7 9 10 2 4 7 5 7 12 12 11 9 14 11 10 12 14 13 13 14 16 18 17 16 16 18 18 17 17 17 17 17 16 15 15 14 10 8 8 5 6 6 8 10 12 13 14 14 14 16 16 17 19 17 16 14 14 14 13 13 14 13 15 14 14 13 14 12 13 12 14 13 13 11 11 12 14 15 13
12 9 8 7 5 7 8 9 9 5 5 6 8 11 12 11 9 11 11 12 13 13 11 11 14 14 14 16 17 17 16 16 18 17 17 17 17 17 17 16 15 13 11 11 10 6 4 6 10 12 14 14 15 14 14 13 15 16 18 18 16 15 15 15 14 14 14 14 14 14 13 13 13 12 13 11 12 12 12 12 12 12 11 10 13 14
3 12 2 3 8 10 11 3 9 12 14 13 8 9 12 14 13 11 13 13 11 13 11 12 14 15 15 14 14 15 15 16 18 18 17 17 16 16 15 14 12 10 10 8 6 6 7 10 11 13 16 16 15 15 13 14 13 17 18 17 15 15 14 15 15 16 15 15 14 15 13 14 13 14 13 13 10 12 12 13 12 12 12 10 10 11
5 4 5 7 6 3 9 10 17 19 17 12 12 12 9 9 12 11 11 12 13 12 12 12 13 14 15 15 14 16 18 16 16 17 17 15 16 16 15 13 12 10 8 8 9 9 11 10 13 14 15 17 16 14 14 14 14 15 16 15 14 13 14 15 16 15 14 14 13 13 13 13 13 12 12 13 11 10 11 9 10 10 11 9 10 9
6 6 7 15 14 11 16 11 15 14 5 5 7 11 13 15 15 14 13 12 13 12 12 13 13 15 13 13 14 15 17 16 15 16 15 15 15 14 13 12 12 10 9 9 11 11 11 12 13 16 16 16 16 15 15 14 15 15 15 13 13 13 14 16 15 14 14 15 13 12 13 13 18 19 12 14 11 12 11 9 8 9 11 10 9 10
3 5 7 3 3 7 10 17 20 16 12 16 19 17 15 14 15 13 10 11 12 14 15 15 12 13 13 15 15 14 16 17 14 14 14 14 13 12 12 11 9 10 11 13 13 11 13 13 14 15 16 17 15 15 15 14 15 15 15 13 13 13 14 15 15 14 14 14 13 13 11 11 11 11 13 13 12 12 11 10 10 10 10 9 8 8
4 9 15 4 12 11 12 15 7 10 11 4 9 12 12 13 12 12 12 13 14 16 16 16 16 13 11 11 12 13 15 15 14 13 13 11 11 11 10 10 11 12 13 13 12 13 13 12 14 16 16 16 15 15 15 15 15 15 14 13 12 13 13 14 14 15 15 13 12 12 13 12 11 13 12 11 10 12 11 14 21 16 12 11 16 27
9 18 7 8 11 15 10 11 7 10 13 12 12 11 10 10 11 13 15 16 17 16 15 15 16 17 15 11 7 9 12 13 14 11 11 10 9 7 8 9 11 12 14 14 13 13 13 14 15 15 16 16 14 15 15 15 16 16 15 13 12 12 13 14 14 13 13 12 11 13 13 11 10 10 9 11 11 11 13 11 10 14 22 26 27 27
Wind_Direction
325 62 43 345 310 312 303 334 246 225 145 129 90 75 56 77 24 321 316 300 49 65 38 80 80 101 56 301 296 306 347 5 358 34 30 23 40 34 31 30 19 29 17 307 312 318 328 338 346 342 347 354 3 15 19 26 28 27 23 20 24 15 15 18 15 16 12 9 6 14 17 10 2 5 4 11 10 12 7 2 3 1 1 357 355 356
33 60 359 320 296 288 286 302 127 79 57 100 92 81 42 49 55 251 282 331 345 117 259 52 77 112 177 326 304 330 38 269 268 29 53 49 55 32 51 33 4 320 310 344 347 338 341 343 347 346 347 355 13 9 13 22 21 21 19 24 15 14 17 19 21 16 18 19 17 3 1 360 358 360 2 359 3 3 0 2 4 1 358 355 354 351
46 50 312 310 300 297 322 332 72 116 96 55 98 122 69 3 251 284 267 342 356 83 250 101 163 202 195 214 254 197 247 247 247 243 247 199 10 33 27 25 6 360 337 329 326 327 334 337 341 348 348 350 5 1 13 8 15 21 21 17 11 8 12 12 12 17 15 9 9 8 356 1 356 2 357 352 345 350 355 1 3 360 357 354 351 349
57 360 312 311 29 45 351 358 65 83 63 65 64 61 132 256 61 5 331 6 345 100 183 173 183 230 271 270 233 233 209 239 252 259 256 234 227 284 277 250 305 322 321 330 316 320 327 332 331 345 348 343 347 360 3 6 11 16 17 15 10 6 5 2 4 7 3 5 356 354 345 348 3 343 326 319 324 352 358 2 359 356 356 351 346 346
135 237 274 34 56 127 88 32 42 36 48 336 83 120 161 332 293 160 291 326 305 19 95 79 340 305 217 192 221 245 259 246 290 334 330 297 246 239 246 243 214 251 276 299 317 327 334 341 336 325 324 339 349 346 357 356 2 5 3 2 5 0 359 356 352 352 339 351 353 346 338 309 314 322 338 356 358 4 358 350 357 353 350 346 343 341
94 266 182 37 35 44 114 48 29 52 22 333 278 147 217 205 245 296 332 10 32 336 350 138 11 288 222 209 208 217 267 239 235 170 266 282 302 346 3 305 314 309 248 241 277 290 301 316 332 344 340 340 332 339 337 336 339 355 345 348 354 353 350 350 344 343 344 353 358 355 359 1 0 359 2 2 354 349 352 349 341 341 347 342 338 338
120 348 65 55 76 68 71 97 266 79 88 53 257 114 324 259 200 241 297 115 300 150 283 26 160 266 284 232 213 212 208 236 284 264 261 288 288 301 278 289 292 290 314 319 306 311 333 327 338 333 334 323 322 322 329 332 340 339 339 341 348 350 347 346 343 342 347 354 2 3 4 359 356 350 347 346 341 339 337 338 338 337 340 342 337 333
22 358 16 33 43 51 50 36 259 100 98 20 192 36 359 71 201 228 170 197 222 297 252 54 112 204 304 265 208 191 184 226 258 255 268 264 275 273 266 266 271 282 273 263 284 293 288 287 299 302 307 311 307 304 320 334 339 338 327 334 342 341 346 342 337 340 348 356 356 356 360 356 353 350 338 338 336 333 330 335 336 335 335 337 337 330
65 348 11 12 26 41 58 206 277 134 129 234 190 253 284 239 236 143 110 102 316 338 278 61 98 284 253 263 37 126 193 236 237 230 228 245 256 262 265 265 266 262 261 260 275 285 294 306 311 305 313 311 312 322 326 318 317 314 326 330 335 336 335 326 335 352 350 358 356 354 352 349 344 336 332 325 323 325 327 329 332 332 331 332 333 330
7 104 294 106 67 354 269 256 210 162 34 279 152 100 94 79 66 85 97 84 324 73 269 204 179 194 271 268 172 333 249 230 219 213 216 220 229 246 271 278 275 281 281 273 249 266 299 307 306 299 292 300 307 304 302 316 329 328 317 316 329 346 353 341 353 360 1 1 356 349 343 337 329 329 323 322 322 324 329 327 328 331 331 331 330 328
268 314 157 83 8 289 282 277 175 199 193 26 91 83 26 44 37 25 66 73 49 307 252 190 9 144 297 228 197 167 219 189 186 220 245 257 263 264 249 253 272 279 286 293 312 309 299 293 288 300 306 294 304 306 301 305 297 289 328 350 2 358 356 351 349 353 349 348 342 335 329 325 322 320 319 321 322 323 325 325 324 328 327 327 325 326
12 4 49 278 187 292 118 337 9 226 297 84 71 115 64 354 3 30 340 31 167 272 258 257 347 194 201 292 258 225 277 192 168 168 178 190 227 257 282 299 283 273 280 293 299 303 323 328 321 329 319 310 292 304 333 341 347 353 352 357 353 336 335 324 316 316 315 324 322 320 318 317 316 318 321 322 321 325 324 323 321 321 319 319 317 317
74 47 269 312 195 30 351 51 289 358 327 47 65 39 72 276 27 284 12 277 204 213 267 321 331 346 237 239 223 208 223 205 184 154 162 167 191 270 288 274 286 288 294 288 279 283 296 279 279 292 306 325 342 341 333 330 325 313 307 308 306 301 303 301 296 293 303 323 330 327 322 320 320 319 317 318 319 319 318 318 317 319 319 317 317 314
288 292 2 317 14 21 44 74 340 5 352 2 45 64 71 14 30 257 274 227 295 285 275 270 295 249 267 289 245 190 206 194 178 157 155 163 184 235 248 287 305 301 286 282 273 272 267 268 271 290 309 309 308 310 305 300 295 286 282 286 294 290 296 295 297 300 323 332 333 329 322 317 316 314 315 316 315 315 312 312 310 312 313 315 311 310
32 342 328 11 18 338 50 95 118 206 330 322 238 339 181 137 168 275 227 264 233 250 284 285 13 240 33 255 328 316 308 243 195 166 162 166 185 214 266 281 283 287 291 271 277 266 264 272 274 283 288 286 283 281 290 285 274 272 281 284 288 292 298 304 303 318 328 329 326 319 312 311 312 312 313 314 311 310 310 308 305 306 308 306 304 300
257 239 265 301 266 8 21 342 110 101 67 278 163 90 55 290 126 224 207 187 306 347 330 260 208 212 225 305 320 336 43 72 127 146 110 227 281 348 334 320 300 295 295 294 281 274 269 260 272 282 277 275 271 274 275 271 269 278 275 273 273 276 287 293 302 308 309 314 311 310 311 310 310 309 310 307 306 302 300 301 304 305 304 300 299 297
19 317 326 320 8 31 324 309 357 120 31 261 66 32 222 218 97 79 68 79 72 51 255 184 306 295 301 299 108 21 114 144 133 169 184 272 290 341 293 279 281 283 286 283 274 266 273 289 285 266 267 269 271 272 267 270 275 272 273 272 273 275 281 284 288 292 302 306 311 309 307 307 309 309 308 307 303 301 299 298 300 300 298 297 295 295
121 270 312 35 252 69 251 228 33 15 152 55 43 236 147 117 115 122 276 338 59 150 267 42 251 303 28 289 29 21 198 228 230 227 232 277 309 299 268 262 264 275 278 279 276 269 266 269 272 276 268 259 259 261 270 273 277 272 263 261 264 273 283 285 287 296 305 307 306 305 306 307 306 306 304 303 302 301 301 300 298 295 295 294 295 297
79 338 300 23 244 285 347 9 343 356 359 117 183 169 76 301 325 327 89 332 323 286 282 298 287 254 209 254 145 233 212 220 224 232 250 267 276 262 267 265 265 275 293 290 279 275 271 261 258 258 264 272 271 269 267 269 269 270 265 259 257 271 276 280 286 290 292 293 298 301 305 304 302 299 298 298 298 301 302 301 300 297 293 295 298 296
32 188 298 312 35 312 338 54 263 301 338 21 41 46 355 104 170 96 201 186 119 273 28 285 13 270 198 230 196 215 213 215 210 224 227 234 241 254 260 273 282 284 278 276 273 266 261 263 266 270 275 279 279 278 273 268 268 265 265 269 272 271 274 282 285 282 287 289 294 298 298 296 294 294 296 298 300 301 300 298 298 298 297 297 298 297
280 83 251 286 311 318 320 8 191 342 305 329 25 335 357 49 210 107 17 142 200 202 198 267 314 273 263 215 190 221 216 211 198 205 218 237 256 270 272 269 271 274 280 279 271 270 266 266 271 273 270 266 268 266 265 261 259 262 272 274 270 270 275 275 272 278 282 292 294 295 294 294 295 294 295 296 296 297 297 297 296 294 295 299 297 298
71 31 226 319 349 351 232 103 197 237 180 192 176 218 178 91 317 286 273 43 57 122 242 148 263 255 273 126 252 262 255 212 196 188 246 270 279 274 270 268 269 283 281 275 275 267 267 267 268 272 272 270 269 267 264 262 263 266 265 263 269 268 262 266 273 274 281 285 287 289 290 291 291 291 293 293 295 294 294 295 294 294 296 296 296 297
131 150 75 290 218 245 271 307 330 233 146 210 159 231 118 90 91 103 218 279 5 238 109 165 304 280 250 274 268 257 223 185 192 190 273 285 283 287 286 279 285 275 272 277 273 271 265 262 263 266 268 268 265 265 267 267 260 258 262 267 263 260 263 259 266 272 276 280 284 286 287 289 290 291 292 292 292 292 293 293 292 293 293 295 296 293
91 69 357 270 303 302 320 358 307 52 117 68 19 48 72 296 180 178 177 186 188 297 285 333 232 246 287 278 283 2 311 310 306 214 271 286 297 292 277 290 299 299 291 282 275 271 266 267 270 270 267 266 266 266 263 260 259 259 259 259 260 261 262 265 266 270 275 279 281 285 288 288 289 290 291 291 290 291 293 291 290 291 291 294 296 295
44 284 121 320 349 336 345 345 2 332 58 97 206 266 104 75 60 124 99 64 286 201 190 132 257 277 266 340 328 4 339 325 297 288 253 286 294 292 300 302 295 292 293 291 289 282 279 274 271 271 273 274 275 273 269 266 262 257 258 257 256 257 259 263 267 270 273 277 283 286 287 288 289 288 288 288 290 291 291 290 288 289 292 294 294 294
119 216 92 7 319 325 321 326 304 295 259 278 292 342 213 132 124 113 265 25 230 265 176 186 262 235 290 1 337 315 302 294 292 298 306 298 294 297 296 292 290 291 286 285 284 284 278 272 274 276 276 277 275 273 273 268 261 258 258 259 253 258 263 265 266 267 274 278 284 288 288 288 288 288 289 290 291 290 290 288 287 288 291 292 292 292
139 11 201 174 176 225 237 244 263 64 355 267 256 161 257 212 210 163 108 160 236 243 213 236 264 292 288 284 292 289 293 296 300 301 300 301 299 297 296 292 290 288 287 286 284 280 281 281 277 278 278 275 275 272 270 269 265 261 262 262 257 252 257 263 268 270 272 278 282 287 287 289 289 290 290 290 290 289 288 286 286 288 289 290 289 288
71 325 245 211 240 243 274 281 244 193 260 267 280 276 253 218 201 193 186 241 87 18 272 220 245 255 269 284 282 288 295 295 294 296 296 294 292 295 296 294 291 289 286 286 286 283 280 280 282 281 279 278 276 274 271 266 262 259 261 263 259 258 259 265 269 273 278 283 287 287 288 289 289 290 288 289 289 288 286 285 286 287 288 288 287 286
137 222 277 115 265 250 270 267 274 255 235 256 251 262 264 255 227 224 237 247 260 242 257 270 291 285 278 278 284 288 292 290 291 288 285 285 289 292 290 288 286 285 284 282 278 277 277 279 281 283 283 281 282 281 278 274 264 259 259 253 254 255 259 264 270 275 280 285 286 286 287 289 289 287 287 288 288 287 286 285 286 287 286 284 282 284
81 261 238 166 283 271 260 263 264 260 271 262 247 247 246 246 246 239 249 249 240 250 262 278 277 269 272 281 282 285 289 287 284 285 286 285 283 285 284 282 281 282 281 278 275 274 274 278 283 285 288 289 288 286 284 278 268 260 259 260 262 268 271 276 276 282 287 287 287 288 290 289 288 287 288 287 287 284 284 285 286 286 284 282 283 284
103 279 61 287 326 299 261 250 277 275 276 274 253 248 249 247 251 246 251 258 251 259 261 264 267 273 273 271 279 273 270 278 291 284 281 282 286 286 282 280 282 283 284 284 284 286 290 293 293 293 291 289 287 282 278 272 267 265 268 270 274 277 281 281 284 287 289 288 288 290 291 290 287 289 287 286 285 284 283 285 285 282 280 281 281 283
68 259 53 70 352 292 351 357 293 290 278 266 270 265 258 250 244 251 228 239 216 240 248 264 271 269 274 272 261 264 277 279 281 287 288 288 289 292 292 292 293 293 294 293 293 296 298 299 299 297 294 290 287 285 280 267 261 268 270 273 277 282 285 287 287 288 288 287 289 290 289 287 288 287 285 285 284 283 284 284 283 280 281 281 284 286
183 142 37 32 308 260 300 330 351 325 313 322 300 232 209 197 203 266 262 258 236 222 264 261 258 261 281 295 299 293 290 289 287 283 288 292 296 295 296 297 297 296 294 296 297 298 299 300 298 297 297 297 299 300 276 258 268 270 273 279 284 291 292 290 288 288 287 287 289 289 287 288 288 286 285 284 283 284 283 283 283 282 284 284 286 287
108 146 214 168 231 275 327 11 337 341 326 255 226 168 153 200 187 205 248 256 243 173 233 235 268 287 291 290 286 284 286 279 275 277 273 280 298 303 298 292 288 287 289 290 292 296 300 302 303 303 302 303 305 285 263 264 262 267 273 281 289 292 291 291 288 286 286 287 286 286 287 287 285 285 283 282 282 281 282 282 283 285 283 283 283 284
165 179 216 190 255 291 334 327 305 174 246 218 219 224 216 241 217 218 252 264 267 251 250 262 267 272 271 272 272 272 270 268 265 273 284 286 284 283 285 289 292 294 293 296 300 304 305 305 304 303 305 307 306 278 272 270 268 278 290 296 297 294 293 290 288 287 286 285 286 286 286 284 283 282 282 282 283 283 281 283 286 285 284 285 283 285
161 177 221 247 224 272 146 184 331 243 268 298 299 300 300 135 186 236 258 251 254 250 252 261 264 266 272 276 277 272 274 280 285 260 266 276 272 270 278 285 293 298 302 304 305 304 305 304 302 302 302 305 297 277 268 276 289 297 298 299 295 293 290 289 288 285 284 286 286 286 284 284 283 283 284 286 286 287 286 287 287 286 288 290 288 285
152 125 139 270 166 234 206 202 233 314 317 294 325 2 45 170 263 45 299 293 251 223 230 250 263 270 271 271 274 284 292 298 287 281 253 259 265 260 259 272 285 293 297 298 299 298 297 297 297 298 300 293 281 274 282 292 297 297 298 296 294 292 291 288 285 284 286 287 287 285 285 285 285 285 287 288 289 288 289 289 289 289 290 290 290 292
166 187 202 123 256 166 265 290 297 271 267 281 221 258 221 201 121 142 53 294 303 230 227 230 250 260 269 275 283 295 319 313 305 301 228 239 255 276 284 282 283 286 291 294 296 298 299 298 298 299 291 280 277 280 286 291 295 297 298 297 296 294 290 287 285 287 288 287 288 286 287 287 288 289 288 290 288 290 290 288 287 285 289 291 295 294
215 226 213 195 261 28 276 249 268 279 255 251 275 237 195 171 144 148 344 281 299 253 234 195 236 252 263 284 298 322 327 311 301 302 306 299 301 300 300 297 295 292 291 293 296 299 300 301 303 299 286 275 283 288 293 298 302 303 302 299 296 292 289 287 289 291 290 290 290 290 291 289 287 289 291 289 290 291 291 292 291 291 293 291 290 289
172 223 182 244 235 224 238 256 255 222 273 270 224 184 173 148 51 43 319 279 238 232 226 190 240 266 284 289 300 303 301 296 300 305 311 308 302 295 293 297 301 303 303 301 299 295 297 301 304 294 285 288 290 297 302 306 305 302 299 296 292 289 287 289 291 292 292 292 293 293 288 288 288 288 290 292 294 294 292 290 292 292 292 291 291 291
240 265 196 222 227 243 238 259 272 268 250 263 271 279 131 181 86 146 254 275 255 223 254 216 257 263 277 289 288 289 281 268 280 291 302 307 309 306 305 300 297 299 301 304 304 310 306 301 291 285 286 284 294 302 304 305 303 300 297 294 293 289 291 295 294 295 295 296 295 293 291 291 291 294 294 294 296 296 291 290 291 294 293 293 294 292
262 227 292 124 232 224 230 243 251 270 257 256 269 232 158 77 295 246 251 216 322 300 283 269 290 295 293 289 288 282 286 288 287 290 297 303 304 304 305 306 306 304 303 302 305 308 300 295 296 293 296 296 299 301 302 302 298 297 297 298 294 294 300 299 298 298 300 299 296 293 293 295 296 296 296 296 296 296 292 288 289 288 291 292 293 291
196 156 218 197 215 192 191 242 311 292 276 192 144 61 158 155 230 246 285 272 266 292 300 299 294 293 297 294 290 288 291 296 298 299 300 301 303 304 306 308 309 309 311 315 315 309 304 303 302 297 292 296 299 301 300 299 298 298 300 298 297 302 303 301 301 301 301 299 295 295 296 297 297 296 296 294 296 293 289 290 291 291 290 292 291 289
190 201 243 247 175 184 187 184 212 218 199 165 146 242 202 216 254 276 288 291 289 290 293 296 295 291 290 290 294 296 295 296 295 296 299 298 299 299 301 302 304 307 310 310 299 297 307 296 288 292 296 299 299 299 299 301 299 299 300 298 302 304 303 303 303 304 300 296 294 295 296 296 295 293 293 293 295 294 289 289 286 283 281 287 290 288
180 203 187 226 189 177 216 217 240 264 231 210 197 244 257 257 267 271 275 274 288 288 282 283 285 286 285 288 291 293 297 294 293 296 298 298 300 302 304 306 309 314 319 318 314 310 304 291 297 298 299 300 300 299 301 302 300 301 300 301 305 305 307 307 306 304 299 297 296 296 296 297 294 293 293 292 293 291 288 285 283 281 278 275 282 285
201 215 45 25 242 247 259 209 273 267 264 258 230 239 262 273 273 272 272 280 275 275 281 280 286 288 288 288 292 294 291 293 296 297 299 301 301 301 304 308 315 323 324 321 316 312 301 299 298 301 301 301 302 303 303 302 303 302 299 302 306 309 309 308 305 301 298 297 297 296 298 297 296 295 292 288 285 281 280 278 281 280 281 279 280 284
227 195 233 235 258 296 270 160 231 247 256 267 273 273 270 265 270 274 278 270 275 279 280 276 278 283 286 292 288 287 290 294 296 297 300 303 305 308 313 318 324 330 326 318 309 309 310 309 306 303 303 303 305 306 306 304 303 299 300 304 311 312 309 305 302 299 298 297 297 297 299 298 297 297 296 292 287 277 272 274 276 281 285 284 283 280
307 168 213 239 243 220 258 262 260 254 255 277 264 276 278 274 271 271 271 276 278 279 277 279 285 286 287 286 285 288 291 295 297 299 303 305 307 312 319 325 326 325 318 312 310 312 308 307 306 306 305 304 306 308 306 304 303 302 305 310 314 312 308 303 300 299 299 301 301 299 299 297 296 296 288 287 287 290 293 288 281 279 279 280 278 278
182 98 232 147 212 255 283 271 265 278 270 263 266 264 261 266 274 278 276 276 279 282 282 280 272 272 281 285 291 293 294 294 295 297 300 304 309 317 323 324 320 316 315 317 314 312 309 310 307 303 304 304 306 307 304 303 304 306 311 315 313 310 307 303 302 301 300 299 298 297 295 290 291 291 294 293 290 283 277 281 285 282 275 265 257 273
130 239 248 283 276 259 248 263 282 296 289 244 238 246 257 264 266 272 280 281 280 282 285 288 288 283 277 278 284 288 291 295 299 304 304 308 313 320 321 320 317 316 313 309 308 308 307 305 304 304 305 304 306 306 306 308 308 308 312 313 311 311 308 308 306 304 303 302 298 296 298 298 295 294 290 289 289 292 285 275 283 290 299 308 307 302
211 243 232 234 240 261 260 263 244 252 275 274 277 276 267 269 275 280 280 281 282 281 282 286 290 294 292 284 270 272 282 289 295 308 309 314 316 310 307 313 315 311 307 308 308 307 308 307 305 305 304 306 310 308 309 310 308 309 311 313 314 316 312 311 307 303 302 303 300 303 305 300 295 294 291 291 291 286 287 301 309 312 311 305 300 298